Regional Weather Roundup
Issued by NWS Northern Indiana

Home | Current Version | Previous Version | Text Only | Print | Product List | Glossary Off
Versions: 1 2 3 4 5 6 7 8 9 10 11 12 13 14 15 16 17 18 19 20 21 22 23 24 25 26 27 28 29 30 31 32 33 34 35 36 37 38 39 40 41 42 43 44 45 46 47 48 49 50

193
ASUS43 KIWX 241000
RWRIWX

KIWX WEATHER ROUNDUP
NATIONAL WEATHER SERVICE NORTHERN INDIANA
600 AM EDT TUE MAY 24 2016

NOTE: "FAIR" INDICATES FEW OR NO CLOUDS BELOW 12,000 FEET WITH NO
SIGNIFICANT WEATHER AND/OR OBSTRUCTIONS TO VISIBILITY.

* THESE STATIONS ARE NOT UNDER NWS QUALITY CONTROL. THEY ALSO MAY NOT
  REPORT WEATHER SUCH AS PRECIPITATION OR FOG.

INZ001>027-241100-
NORTHERN INDIANA

CITY           SKY/WX    TMP DP  RH WIND       PRES   REMARKS
GARY*          PTCLDY    64  50  59 S5        29.99R
KNOX*          CLEAR     55  32  41 SW3       30.01R
SOUTH BEND     CLEAR     55  39  54 SW7       30.02R
GOSHEN         CLEAR     48  39  71 S3        30.02R
MONTICELLO*    CLOUDY    57  39  49 S3        30.02R
ANGOLA*        CLEAR     46  46 100 CALM      30.03R
FORT WAYNE     PTCLDY    53  44  71 S5        30.04R

$$
INZ028>050-241100-
CENTRAL INDIANA

CITY           SKY/WX    TMP DP  RH WIND       PRES   REMARKS
LAFAYETTE      CLOUDY    52  45  77 CALM      30.02S
KOKOMO*        CLEAR     52  39  62 SW5       30.04R
MUNCIE*        CLEAR     58  47  66 SW5       30.05R
INDIANAPOLIS   MOCLDY    57  44  62 CALM      30.04R

$$
MIZ043>046-050>051-056>058-064>065-071>073-077>080-241100-
SOUTHWEST LOWER MICHIGAN

CITY           SKY/WX    TMP DP  RH WIND       PRES   REMARKS
BATTLE CREEK   CLEAR     53  39  59 S3        30.02R
BENTON HARBOR  CLEAR     58  38  47 S7        29.99R
COLDWATER*     CLEAR     45  43  92 CALM      30.02R
HILLSDALE*     CLEAR     50  39  65 CALM      30.03S
HOLLAND        CLEAR     56  38  50 S3        29.99R
GRAND RAPIDS   PTCLDY    52  41  66 S5        29.99S
KALAMAZOO      CLEAR     50  39  66 CALM      30.01R
STURGIS*       CLEAR     51  38  63 CALM      30.01S
THREE RIVERS*  FAIR      49  42  76 CALM      30.01F

$$
OHZ001>008-015>018-024>025-241100-
NORTHWEST OHIO

CITY           SKY/WX    TMP DP  RH WIND       PRES   REMARKS
DEFIANCE       CLEAR     48  45  89 CALM      30.03R
FINDLAY        CLEAR     54  45  71 CALM      30.03R
TOLEDO EXPRESS CLEAR     48  46  93 CALM      30.03R
TOLEDO METCALF CLEAR     53  46  77 SW5       30.03R
LIMA           CLEAR     56  46  69 S6        30.05R

$$
AND FOR LAKE MICHIGAN COASTAL AND OPEN LAKE BUOY OBSERVATIONS

STATION/POSITION TEMP    WIND        PRES    VSBY  WAVE
                 AIR SEA DIR/SP/G                  HT/PER
                 (F)     (DEG/KT/KT) (MB)    (MI)  (FT/S)
CALUMET HARBOR    64     190/  5/  9 1014.3R
MICHIGAN CITY     65     160/ 14/ 17   N/A
BURNS HARBOR      64     190/ 10/ 16 1015.6R
SAINT JOSEPH      63     140/  5/ 10 1015.9R
SOUTH LAKE BUOY   54 48  170/ 12/ 14 1013.8          1
4 MI NW BRIDGMAN  60 56  180/  8/  8   N/A           1
MICHIGAN CITY     60 56  190/  6/  8   N/A           1

$$
&&




USA.gov is the U.S. government's official web portal to all federal, state and local government web resources and services.